Location: Orange Harbor Mobile Home Park
(26.6923°N, 81.7937°W)
Time: 22:33:02
(UTC+00:00)

H-2A R/B - Pass Details

Date: 19 September 2020
Orbit: 577 x 655 km, 98.5° (Epoch: 25 October)

Event Time Altitude Azimuth Distance (km) Brightness Sun altitude
Rises 08:53:21 0° 146° (SE) 2,851 5.6 -31.8°
Reaches altitude 10° 08:55:39 10° 136° (SE) 1,963 4.9 -31.3°
Maximum altitude 08:59:27 32° 73° (ENE) 1,067 3.7 -30.5°
Drops below altitude 10° 09:03:21 10° 10° (N) 2,015 5.0 -29.6°
Sets 09:05:45 0° 1° (N) 2,938 5.8 -29.1°
